Location: Pian di Sc�
(43.6333°N, 11.5500°E)
Time: 14:29:46
(UTC+00:00)

Cosmos 1898 Rocket - Pass Details

Date: 07 August 2020
Orbit: 754 x 783 km, 74.0° (Epoch: 25 September)

Event Time Altitude Azimuth Distance (km) Brightness Sun altitude
Exits shadow 02:11:48 33° 211° (SSW) 1,272 4.1 -18.3°
Maximum altitude 02:14:12 77° 290° (WNW) 791 3.4 -18.0°
Drops below altitude 10° 02:19:26 10° 18° (NNE) 2,303 6.9 -17.3°
Sets 02:21:49 0° 20° (NNE) 3,229 7.9 -17.0°
